Showing default

GALILEO 24 (2C0), 43567

Orbit data source: Space-Track

GALILEO 24 (2C0), 43567 is a payload satellite owned by GNSS Agency (ESA) that was launched on Wed, 25 Jul 2018 UTC via an ARIANE 5ES launch vehicle from the French Guiana (FRGUI). Payload-class satellites include a variety of spacecraft equipped with specific instruments for various scientific and technological missions. These include communications satellites like Starlink; space stations such as the ISS; scientific satellites like the Hubble; Earth observation satellites from companies like Planet Labs, Umbra, and HawkEye 360; GPS; miniature CubeSats for education and research; and military/defense satellites.

Loading next visibility...
Identifier
43567, 2018-060D
Orbit
Active
Country
Flag of ESAESA
Related business
Manufacturer
OHB
Mission
Operational Civil Navigation
Bus & Motor
GALILEOSAT, AOCS
Mass
715 kg wet, 700 kg dry
Launch date (UTC)
2018-07-25 (8 years ago)
Launch vehicle
ARIANE 5ES
Launch site
French Guiana (FRGUI)
Object type
Payload
Rocket body
Debris
Shape & HBR
Box + 2 Pan, 7.3 m
Radar Cross Section
9.223 m², Large (>1 m²)

Expand to show TLE details & history
Last TLE update: 3 days ago

TLE from 3 days ago
0 GALILEO 24 (2C0)
1 43567U 18060D   26170.48626588 -.00000094  00000-0  00000-0 0  9997
2 43567  57.1712 341.7225 0002112 313.2574  46.7188  1.70475760 49212
Epoch: 2026-06-19T11:40Z
TLE epoch observation values (Epoch: 2026-06-19T11:40:13.372Z)
Latitude
0.00001°
Longitude
-101.05921°
Altitude
23,218.014 km
Speed
3.67 km/s
True Right ascension
22h 46m 50s
True Declination
0° 00' 00"
Sunlit
Object was in daylight at epoch
Visualization orbit readout
Latitude
Unknown
Longitude
Unknown
Altitude
Unknown
Speed
Unknown
Apparent Right ascension
Unknown
Apparent Declination
Unknown
Sunlit
N/A
Visualization observer readout
Local Sidereal Time
21:24:57
Azimuth
Unknown
Elevation
Unknown
Doppler factor
Unknown
Orbital elements
Apogee altitude
23,228.161 km
Perigee altitude
23,215.658 km
Semi-major axis
29,600.046 km
Eccentricity
0.00021
Inclination
57.1712°
RAAN
341.7225°
Arg. of periapsis
313.2574°
True anomaly
46.73642°
Mean anomaly
46.7188°
Eccentric anomaly
46.72761°
Mean motion
0.42619 °/min
Orbital period
844.69 mins
BSTAR
0
Loading maneuver chart data...
Computing Atmospheric mass density...
Loading historical data...
Loading historical data...
Loading historical data...
Loading historical data...
Loading historical data...
Loading historical data...
Loading historical data...
Other satellites on launch #60 in the year 2018 (2018-07-25 UTC)

Documentation

Showing up to 5 results
|